When you browse on this site, cookies collect data to enhance your experience and personalize the content and advertising you see.
Visit our Privacy Policy to learn more. By continuing to use the site, you agree to this use of cookies and data.
  • en France
  • Liste des pays
  • À 7 jours
  • Température de l'eau
  • Carte satellitaire
  • Carte météo
  • Widgets météo
  • user-avatar
    Se connecter

    Météo par heure à Etchmiadzin

    Ce jour, 24 Avril, Mercredi

    Heure Température Précipitation Vent Pression Humidité
    00:00 +7°C° 0 mm 1 m/s 692 mmHg 55%
    01:00 +6°C° 0 mm 0 m/s 692 mmHg 57%
    02:00 +5°C° 0 mm 0 m/s 692 mmHg 59%
    03:00 +5°C° 0 mm 0 m/s 692 mmHg 61%
    04:00 +5°C° 0 mm 0 m/s 692 mmHg 62%
    05:00 +6°C° 0 mm 1 m/s 692 mmHg 62%
    06:00 +6°C° 0 mm 1 m/s 693 mmHg 62%
    07:00 +8°C° 0 mm 1 m/s 693 mmHg 56%
    08:00 +9°C° 0 mm 1 m/s 693 mmHg 50%
    09:00 +10°C° 0 mm 2 m/s 692 mmHg 44%
    10:00 +12°C° 0 mm 2 m/s 692 mmHg 41%
    11:00 +13°C° 0 mm 2 m/s 692 mmHg 38%
    12:00 +14°C° 0 mm 2 m/s 692 mmHg 35%
    13:00 +14°C° 0 mm 2 m/s 691 mmHg 34%
    14:00 +15°C° 0 mm 2 m/s 691 mmHg 33%
    15:00 +15°C° 0 mm 2 m/s 691 mmHg 31%
    16:00 +15°C° 0 mm 2 m/s 691 mmHg 33%
    17:00 +14°C° 0 mm 2 m/s 690 mmHg 34%
    18:00 +14°C° 0 mm 2 m/s 690 mmHg 35%
    19:00 +13°C° 0 mm 2 m/s 691 mmHg 38%
    20:00 +12°C° 0 mm 2 m/s 691 mmHg 41%
    21:00 +9°C° 0 mm 2 m/s 691 mmHg 45%
    22:00 +9°C° 0.1 mm 2 m/s 691 mmHg 47%
    23:00 +10°C° 0.1 mm 1 m/s 692 mmHg 49%

    Demain, 25 Avril, Jeudi

    Heure Température Précipitation Vent Pression Humidité
    00:00 +9°C° 0.1 mm 1 m/s 692 mmHg 51%
    01:00 +9°C° 0.2 mm 1 m/s 692 mmHg 53%
    02:00 +9°C° 0.2 mm 1 m/s 692 mmHg 55%
    03:00 +7°C° 0.2 mm 0 m/s 692 mmHg 56%
    04:00 +7°C° 0.2 mm 0 m/s 692 mmHg 57%
    05:00 +7°C° 0.2 mm 0 m/s 692 mmHg 59%
    06:00 +7°C° 0.2 mm 0 m/s 693 mmHg 60%
    07:00 +9°C° 0 mm 1 m/s 692 mmHg 56%
    08:00 +10°C° 0 mm 1 m/s 692 mmHg 53%
    09:00 +10°C° 0 mm 2 m/s 692 mmHg 49%
    10:00 +13°C° 0 mm 1 m/s 692 mmHg 45%
    11:00 +14°C° 0 mm 1 m/s 692 mmHg 41%
    12:00 +15°C° 0 mm 1 m/s 691 mmHg 37%
    13:00 +15°C° 0 mm 1 m/s 691 mmHg 36%
    14:00 +16°C° 0 mm 1 m/s 691 mmHg 34%
    15:00 +16°C° 0 mm 1 m/s 690 mmHg 33%
    16:00 +16°C° 0 mm 1 m/s 690 mmHg 34%
    17:00 +15°C° 0 mm 1 m/s 690 mmHg 35%
    18:00 +15°C° 0 mm 1 m/s 690 mmHg 36%
    19:00 +14°C° 0 mm 1 m/s 691 mmHg 39%
    20:00 +12°C° 0 mm 1 m/s 691 mmHg 43%
    21:00 +11°C° 0 mm 1 m/s 691 mmHg 46%
    22:00 +10°C° 0 mm 1 m/s 691 mmHg 47%
    23:00 +10°C° 0 mm 1 m/s 692 mmHg 49%

    Après-demain, 26 Avril, Vendredi

    Heure Température Précipitation Vent Pression Humidité
    00:00 +9°C° 0 mm 1 m/s 692 mmHg 50%
    01:00 +8°C° 0 mm 1 m/s 692 mmHg 51%
    02:00 +8°C° 0 mm 1 m/s 692 mmHg 52%
    03:00 +8°C° 0 mm 1 m/s 691 mmHg 53%
    04:00 +8°C° 0 mm 1 m/s 691 mmHg 53%
    05:00 +8°C° 0 mm 1 m/s 692 mmHg 54%
    06:00 +8°C° 0 mm 1 m/s 692 mmHg 54%
    07:00 +10°C° 0 mm 1 m/s 691 mmHg 48%
    08:00 +11°C° 0 mm 1 m/s 691 mmHg 42%
    09:00 +13°C° 0 mm 1 m/s 691 mmHg 37%
    10:00 +14°C° 0 mm 1 m/s 691 mmHg 34%
    11:00 +15°C° 0 mm 1 m/s 690 mmHg 32%
    12:00 +16°C° 0 mm 2 m/s 690 mmHg 29%
    13:00 +17°C° 0 mm 2 m/s 690 mmHg 29%
    14:00 +17°C° 0 mm 2 m/s 690 mmHg 28%
    15:00 +18°C° 0 mm 2 m/s 689 mmHg 28%
    16:00 +17°C° 0 mm 2 m/s 689 mmHg 29%
    17:00 +16°C° 0 mm 1 m/s 689 mmHg 30%
    18:00 +16°C° 0 mm 1 m/s 689 mmHg 32%
    19:00 +14°C° 0 mm 1 m/s 689 mmHg 35%
    20:00 +13°C° 0 mm 1 m/s 689 mmHg 39%
    21:00 +11°C° 0 mm 1 m/s 690 mmHg 43%
    22:00 +11°C° 0 mm 1 m/s 690 mmHg 46%
    23:00 +10°C° 0 mm 1 m/s 690 mmHg 49%

    27 Avril, Samedi

    Heure Température Précipitation Vent Pression Humidité
    00:00 +10°C° 0 mm 1 m/s 690 mmHg 52%
    01:00 +9°C° 0 mm 1 m/s 690 mmHg 54%
    02:00 +9°C° 0 mm 1 m/s 690 mmHg 56%
    03:00 +8°C° 0 mm 1 m/s 689 mmHg 58%
    04:00 +9°C° 0 mm 1 m/s 690 mmHg 59%
    05:00 +9°C° 0 mm 1 m/s 690 mmHg 59%
    06:00 +9°C° 0 mm 1 m/s 690 mmHg 59%
    07:00 +11°C° 0 mm 1 m/s 689 mmHg 51%
    08:00 +12°C° 0 mm 1 m/s 689 mmHg 43%
    09:00 +14°C° 0 mm 1 m/s 689 mmHg 35%
    10:00 +15°C° 0 mm 2 m/s 689 mmHg 33%
    11:00 +16°C° 0 mm 2 m/s 689 mmHg 31%
    12:00 +17°C° 0 mm 2 m/s 688 mmHg 29%
    13:00 +18°C° 0 mm 3 m/s 688 mmHg 28%
    14:00 +18°C° 0 mm 3 m/s 688 mmHg 27%
    15:00 +19°C° 0 mm 3 m/s 687 mmHg 26%
    16:00 +18°C° 0 mm 2 m/s 687 mmHg 27%
    17:00 +17°C° 0 mm 2 m/s 687 mmHg 28%
    18:00 +17°C° 0 mm 2 m/s 687 mmHg 30%
    19:00 +15°C° 0 mm 2 m/s 687 mmHg 31%
    20:00 +14°C° 0 mm 2 m/s 687 mmHg 32%
    21:00 +13°C° 0 mm 2 m/s 688 mmHg 33%
    22:00 +12°C° 0 mm 2 m/s 688 mmHg 33%
    23:00 +12°C° 0 mm 1 m/s 687 mmHg 34%

    28 Avril, Dimanche

    Heure Température Précipitation Vent Pression Humidité
    00:00 +11°C° 0 mm 1 m/s 687 mmHg 34%
    01:00 +11°C° 0 mm 1 m/s 687 mmHg 35%
    02:00 +9°C° 0 mm 2 m/s 687 mmHg 35%
    03:00 +9°C° 0 mm 2 m/s 687 mmHg 35%
    04:00 +9°C° 0 mm 2 m/s 687 mmHg 38%
    05:00 +9°C° 0 mm 2 m/s 687 mmHg 40%
    06:00 +10°C° 0 mm 1 m/s 687 mmHg 43%
    07:00 +12°C° 0 mm 2 m/s 686 mmHg 40%
    08:00 +14°C° 0 mm 2 m/s 686 mmHg 37%
    09:00 +16°C° 0 mm 2 m/s 686 mmHg 34%
    10:00 +17°C° 0 mm 2 m/s 686 mmHg 33%
    11:00 +18°C° 0 mm 2 m/s 686 mmHg 32%
    12:00 +19°C° 0 mm 2 m/s 685 mmHg 31%
    13:00 +20°C° 0 mm 3 m/s 685 mmHg 31%
    14:00 +20°C° 0 mm 3 m/s 685 mmHg 31%
    15:00 +21°C° 0 mm 3 m/s 685 mmHg 31%
    16:00 +20°C° 0.1 mm 3 m/s 685 mmHg 33%
    17:00 +19°C° 0.1 mm 3 m/s 685 mmHg 36%
    18:00 +19°C° 0.1 mm 3 m/s 684 mmHg 38%
    19:00 +17°C° 0 mm 3 m/s 685 mmHg 40%
    20:00 +16°C° 0 mm 2 m/s 685 mmHg 42%
    21:00 +14°C° 0 mm 2 m/s 685 mmHg 44%
    22:00 +14°C° 0 mm 2 m/s 685 mmHg 45%
    23:00 +14°C° 0 mm 1 m/s 685 mmHg 47%

    29 Avril, Lundi

    Heure Température Précipitation Vent Pression Humidité
    00:00 +13°C° 0 mm 1 m/s 685 mmHg 48%
    01:00 +13°C° 0 mm 1 m/s 685 mmHg 50%
    02:00 +13°C° 0 mm 2 m/s 685 mmHg 51%
    03:00 +12°C° 0 mm 2 m/s 685 mmHg 53%
    04:00 +13°C° 0.1 mm 2 m/s 685 mmHg 54%
    05:00 +13°C° 0.1 mm 2 m/s 685 mmHg 56%
    06:00 +13°C° 0.1 mm 2 m/s 685 mmHg 57%
    07:00 +14°C° 0 mm 2 m/s 685 mmHg 54%
    08:00 +16°C° 0 mm 2 m/s 686 mmHg 51%
    09:00 +17°C° 0 mm 3 m/s 686 mmHg 47%
    10:00 +18°C° 0 mm 3 m/s 685 mmHg 44%
    11:00 +20°C° 0 mm 3 m/s 685 mmHg 41%
    12:00 +21°C° 0 mm 3 m/s 685 mmHg 38%
    13:00 +21°C° 0.1 mm 3 m/s 685 mmHg 38%
    14:00 +21°C° 0.1 mm 3 m/s 685 mmHg 37%
    15:00 +21°C° 0.1 mm 3 m/s 684 mmHg 36%
    16:00 +20°C° 0.2 mm 3 m/s 684 mmHg 39%
    17:00 +20°C° 0.2 mm 3 m/s 684 mmHg 41%
    18:00 +19°C° 0.2 mm 3 m/s 685 mmHg 44%
    19:00 +18°C° 0.1 mm 3 m/s 685 mmHg 47%
    20:00 +16°C° 0.1 mm 2 m/s 685 mmHg 50%
    21:00 +15°C° 0.1 mm 2 m/s 685 mmHg 52%
    22:00 +15°C° 0 mm 1 m/s 685 mmHg 55%
    23:00 +14°C° 0 mm 1 m/s 685 mmHg 57%
    Voir plus